Concordia, KS

9:57 AM CST on February 24, 2017 (GMT -0600)
Blosser Municipal

Weather History for KCNK - July, 2013

Change the Weather History Date:

Sunday, July 7, 2013

  Actual Average Record
Temperature  
Mean Temperature 86 °F 79 °F  
Max Temperature 97 °F 91 °F 105 °F (2001)
Min Temperature 75 °F 67 °F 49 °F (1908)
Degree Days  
Heating Degree Days 0 0  
Month to date heating degree days 0 0  
Since 1 June heating degree days 15 13  
Since 1 July heating degree days 0 0  
Cooling Degree Days 21 14  
Month to date cooling degree days 79 94  
Year to date cooling degree days 478 448  
Since 1 June cooling degree days 375 359  
Growing Degree Days 36 (Base 50)    
Moisture  
Dew Point 62 °F    
Average Humidity 47    
Maximum Humidity 64    
Minimum Humidity 29    
Precipitation  
Precipitation T in 0.14 in 2.67 in (1993)
Month to date precipitation T 0.98  
Year to date precipitation 12.67 15.02  
Snow  
Snow 0.00 in 0.00 in T in (1944)
Month to date snowfall 0.0 0.0  
Year to date snowfall 20.3 13.7  
Since 1 July snowfall 0.0 0.0  
Snow Depth 0.00 in    
Sea Level Pressure  
Sea Level Pressure 29.82 in    
Wind  
Wind Speed 15 mph (South)    
Max Wind Speed 24 mph    
Max Gust Speed 33 mph    
Visibility 10 miles    
Events      
T = Trace of Precipitation, MM = Missing Value Source: NWS Daily Summary

Daily Weather History Graph

Daily Weather History Graph

Search for Another Location

Airport or City:

Trip Planner

Search our weather history database for the weather conditions in past years. The results will help you decide how hot, cold, wet, or windy it might be!

Date:

Astronomy

Jul. 07, 2013 Rise Set
Actual Time 6:10 AM CDT 9:00 PM CDT
Civil Twilight 5:38 AM CDT 9:32 PM CDT
Nautical Twilight 4:57 AM CDT 10:12 PM CDT
Astronomical Twilight 4:11 AM CDT 10:58 PM CDT
Moon 5:47 AM CDT (7/7) 8:25 PM CDT (7/7)
Length of Visible Light 15h 54m
Length of Day
14h 50m
Waning Crescent, 0% of the Moon is Illuminated
Jul 7
Waning Crescent
Jul 8
New
Jul 15
First Quarter
Jul 22
Full
Jul 29
Last Quarter

Hourly Weather History & Observations

Time (CDT) Temp. Heat Index Dew Point Humidity Pressure Visibility Wind Dir Wind Speed Gust Speed Precip Events Conditions
12:55 AM 77.0 °F - 63.0 °F 62% 29.80 in 10.0 mi South 13.8 mph 20.7 mph N/A   Partly Cloudy
1:55 AM 78.1 °F - 63.0 °F 60% 29.81 in 10.0 mi South 16.1 mph 25.3 mph N/A   Partly Cloudy
2:55 AM 78.1 °F - 63.0 °F 60% 29.81 in 10.0 mi SSW 19.6 mph 27.6 mph N/A   Clear
3:55 AM 75.9 °F - 63.0 °F 64% 29.81 in 10.0 mi South 16.1 mph 21.9 mph N/A   Clear
4:55 AM 75.9 °F - 63.0 °F 64% 29.81 in 10.0 mi South 18.4 mph 27.6 mph N/A   Clear
5:55 AM 75.0 °F - 63.0 °F 66% 29.81 in 10.0 mi South 21.9 mph 31.1 mph N/A   Clear
6:55 AM 75.0 °F - 63.0 °F 66% 29.82 in 9.0 mi South 20.7 mph 28.8 mph N/A   Clear
7:55 AM 75.9 °F - 63.0 °F 64% 29.83 in 10.0 mi South 20.7 mph 28.8 mph N/A   Clear
8:55 AM 77.0 °F - 62.1 °F 60% 29.84 in 10.0 mi South 17.3 mph 27.6 mph N/A   Clear
9:55 AM 80.1 °F 81.2 °F 62.1 °F 54% 29.85 in 10.0 mi SSW 17.3 mph 27.6 mph N/A   Clear
10:55 AM 82.0 °F 82.7 °F 61.0 °F 49% 29.85 in 10.0 mi SSW 19.6 mph 26.5 mph N/A   Clear
11:55 AM 86.0 °F 86.1 °F 61.0 °F 43% 29.84 in 10.0 mi SSW 16.1 mph 21.9 mph N/A   Clear
12:55 PM 89.1 °F 89.0 °F 61.0 °F 39% 29.83 in 10.0 mi SSW 16.1 mph 21.9 mph N/A   Clear
1:55 PM 93.9 °F 93.6 °F 60.1 °F 32% 29.82 in 10.0 mi SW 13.8 mph 21.9 mph N/A   Clear
2:55 PM 97.0 °F 96.5 °F 59.0 °F 28% 29.82 in 10.0 mi SSW 15.0 mph - N/A   Clear
3:55 PM 97.0 °F 97.4 °F 61.0 °F 30% 29.82 in 10.0 mi South 15.0 mph 23.0 mph N/A   Clear
4:55 PM 91.9 °F 92.5 °F 62.1 °F 37% 29.82 in 10.0 mi South 8.1 mph - N/A   Clear
5:55 PM 91.0 °F 92.6 °F 64.0 °F 41% 29.82 in 10.0 mi Calm Calm - N/A   Scattered Clouds
6:55 PM 88.0 °F 90.3 °F 66.0 °F 48% 29.80 in 10.0 mi SSE 6.9 mph - 0.00 in   Partly Cloudy
7:55 PM 91.9 °F 92.9 °F 63.0 °F 38% 29.79 in 10.0 mi South 11.5 mph - N/A   Clear
8:55 PM 88.0 °F 87.6 °F 60.1 °F 39% 29.81 in 10.0 mi South 10.4 mph - N/A   Clear
9:55 PM 84.9 °F 84.4 °F 59.0 °F 41% 29.83 in 10.0 mi South 10.4 mph - N/A   Clear
10:55 PM 84.9 °F 84.4 °F 59.0 °F 41% 29.85 in 10.0 mi South 15.0 mph - N/A   Clear
11:55 PM 86.0 °F 86.1 °F 61.0 °F 43% 29.86 in 10.0 mi South 16.1 mph 21.9 mph N/A   Clear